COSMOS 2242

Last updated on Thu Oct 30 2025 00:02:15 GMT+0000 (Coordinated Universal Time)

1 22626U 93024A 25302.35596272 .00002882 00000+0 25513-3 0 9995 2 22626 82.5218 32.2497 0017101 31.6278 328.5967 14.95832556760753
UTC large
Height (km)
Speed (km/s)
/
Latitude / Longitude
Inclination (degrees)
Orbital Period (minutes)
Azimuth
Elevation
Range (km)
Doppler Factor

Next 0 passes for location: London (51.5072 / 0.1276)

Sorry there are no passes over London.